CZ-6A DEB, 55202

Orbit data source: Space-Track

CZ-6A DEB, 55202 is space debris in SSO originally from a launch on Fri, 11 Nov 2022 UTC launched from the Taiyaun Space Center, China (TSC). Debris objects in space refer to the collection of defunct objects orbiting the Earth. Examples of debris include non-operational satellites, rocket bodies, and fragments generated from explosions, collisions, or faulty payload assembly.

Loading next visibility...
Identifier
55202, 2022-151VT
Orbit
SSO
Country
Flag of CNCN / PRC
Related business
Manufacturer
SAST
Mission
Spacecraft
Bus & Motor
Unknown
Mass
Unknown
Launch date (UTC)
2022-11-11 (4 years ago)
Launch vehicle
Unknown
Launch site
Taiyaun Space Center, China (TSC)
Object type
Payload
Rocket body
Debris
Shape & HBR
Unknown shape, 0.1 m
Radar Cross Section
Small (<0.1 m²)

Expand to show TLE details & history
Last TLE update: 2 days ago

TLE from 2 days ago
0 CZ-6A DEB
1 55202U 22151VT  26171.24135215  .02119587  00000-0  12412-1 0  9999
2 55202  98.5862 264.7998 0023993 259.2780 100.5779 15.75043089187487
Epoch: 2026-06-20T05:47Z
TLE epoch observation values (Epoch: 2026-06-20T05:47:32.825Z)
Latitude
-0.00011°
Longitude
-90.54575°
Altitude
350.635 km
Speed
7.697 km/s
True Right ascension
17h 39m 11s
True Declination
0° 00' 00"
Sunlit
Object was in full shadow at epoch
Visualization orbit readout
Latitude
Unknown
Longitude
Unknown
Altitude
Unknown
Speed
Unknown
Apparent Right ascension
Unknown
Apparent Declination
Unknown
Sunlit
N/A
Visualization observer readout
Local Sidereal Time
21:29:56
Azimuth
Unknown
Elevation
Unknown
Doppler factor
Unknown
Orbital elements
Apogee altitude
357.579 km
Perigee altitude
325.335 km
Semi-major axis
6,719.594 km
Eccentricity
0.0024
Inclination
98.5862°
RAAN
264.7998°
Arg. of periapsis
259.278°
True anomaly
100.84802°
Mean anomaly
100.5779°
Eccentric anomaly
100.71297°
Mean motion
3.94029 °/min
Orbital period
91.36 mins
BSTAR
0.012412
Loading maneuver chart data...
Computing Atmospheric mass density...
Loading historical data...
Loading historical data...
Loading historical data...
Loading historical data...
Loading historical data...
Loading historical data...
Loading historical data...

Documentation

Showing up to 5 results
|